WetterOnline ( http://www.wetteronline.de )

Wetter aktuell Freising

Aktuelles Wetter: Weihenstephan-Dürnast (478m)

6-stündlich | Neueste Meldungen
Ortszeit Temperatur Wetter
Fr, 20.07. 20:00 24.3° C wolkig
Fr, 20.07. 14:00 27.4° C wolkenlos
Fr, 20.07. 8:00 18.0° C wolkenlos
Fr, 20.07. 2:00 13.3° C fast wolkenlos
Do, 19.07. 20:00 25.6° C wolkenlos
Do, 19.07. 14:00 25.4° C leicht bewölkt
Do, 19.07. 8:00 17.9° C wolkig
Do, 19.07. 2:00 13.7° C wolkenlos
Ortszeit Temperatur Wetter
Fr, 20.07. 23:30 21.8° C wolkig
Fr, 20.07. 23:20 21.8° C wolkig
Fr, 20.07. 23:10 21.5° C bewölkt
Fr, 20.07. 23:00 19.9° C wolkig
Fr, 20.07. 22:50 19.9° C wolkig
Fr, 20.07. 22:40 19.7° C bewölkt
Fr, 20.07. 22:30 19.7° C bewölkt
Fr, 20.07. 22:00 19.4° C bewölkt
Fr, 20.07. 21:30 20.2° C bedeckt
Fr, 20.07. 21:00 21.3° C wolkig
Fr, 20.07. 20:30 22.7° C wolkig
Ortszeit Relative Feuchte Sichtweite
Fr, 20.07. 20:00 54% 26 km
Fr, 20.07. 14:00 35% 24 km
Fr, 20.07. 8:00 65% 23 km
Fr, 20.07. 2:00 83% 28 km
Do, 19.07. 20:00 34% 35 km
Do, 19.07. 14:00 39% 20 km
Do, 19.07. 8:00 67% 28 km
Do, 19.07. 2:00 87% 24 km
Ortszeit Relative Feuchte Sichtweite
Fr, 20.07. 23:30 57% 30 km
Fr, 20.07. 23:20 57% -
Fr, 20.07. 23:10 60% -
Fr, 20.07. 23:00 73% 21 km
Fr, 20.07. 22:50 73% -
Fr, 20.07. 22:40 74% -
Fr, 20.07. 22:30 72% 23 km
Fr, 20.07. 22:00 77% 20 km
Fr, 20.07. 21:30 75% 22 km
Fr, 20.07. 21:00 72% 22 km
Fr, 20.07. 20:30 61% 13 km
Ortszeit Niederschlagsmenge Niederschlagsart
Fr, 20.07. 20:00 0.0 l/m2 in 12 Std. -
Fr, 20.07. 14:00 0.0 l/m2 in 6 Std. -
Fr, 20.07. 8:00 0.0 l/m2 in 12 Std. -
Fr, 20.07. 2:00 0.0 l/m2 in 6 Std. -
Do, 19.07. 20:00 0.0 l/m2 in 12 Std. -
Do, 19.07. 14:00 0.0 l/m2 in 6 Std. -
Do, 19.07. 8:00 0.0 l/m2 in 12 Std. -
Do, 19.07. 2:00 0.0 l/m2 in 6 Std. -
Ortszeit Niederschlagsmenge Niederschlagsart
Fr, 20.07. 23:30 0.0 l/m2 in 1 Std. -
Fr, 20.07. 23:20 keine Meldung -
Fr, 20.07. 23:10 keine Meldung -
Fr, 20.07. 23:00 0.0 l/m2 in 1 Std. -
Fr, 20.07. 22:50 keine Meldung -
Fr, 20.07. 22:40 keine Meldung -
Fr, 20.07. 22:30 0.0 l/m2 in 1 Std. -
Fr, 20.07. 22:00 0.0 l/m2 in 1 Std. -
Fr, 20.07. 21:30 0.0 l/m2 in 1 Std. -
Fr, 20.07. 21:00 0.0 l/m2 in 1 Std. -
Fr, 20.07. 20:30 0.0 l/m2 in 1 Std. -
Ortszeit Stärke Spitze Richtung
km/h Bft. km/h Grad Sektor
Fr, 20.07. 20:00 4 1 22 30° NO
Fr, 20.07. 14:00 7 2 25 130° SO
Fr, 20.07. 8:00 4 1 7 130° SO
Fr, 20.07. 2:00 4 1 11 270° W
Do, 19.07. 20:00 6 1 24 350° N
Do, 19.07. 14:00 11 2 29 320° NW
Do, 19.07. 8:00 6 1 11 30° NO
Do, 19.07. 2:00 6 1 13 260° W
Ortszeit Stärke Spitze Richtung
km/h Bft. km/h Grad Sektor
Fr, 20.07. 23:30 11 2 22 240° SW
Fr, 20.07. 23:20 11 2 - 240° SW
Fr, 20.07. 23:10 11 2 - 260° W
Fr, 20.07. 23:00 0 0 18 - -
Fr, 20.07. 22:50 2 1 - 90° O
Fr, 20.07. 22:40 4 1 - 220° SW
Fr, 20.07. 22:30 4 1 7 260° W
Fr, 20.07. 22:00 2 1 4 270° W
Fr, 20.07. 21:30 2 1 2 290° W
Fr, 20.07. 21:00 0 0 4 - -
Fr, 20.07. 20:30 4 1 4 260° W
Ortszeit Untergrenze Bedeckung Gattung
total tief tief mittel hoch
Fr, 20.07. 20:00 7800 m 7/8 0/8 - - -
Fr, 20.07. 14:00 - 0/8 0/8 - - -
Fr, 20.07. 8:00 - 0/8 0/8 - - -
Fr, 20.07. 2:00 10500 m 1/8 0/8 - - -
Do, 19.07. 20:00 - 0/8 0/8 - - -
Do, 19.07. 14:00 10500 m 5/8 0/8 - - -
Do, 19.07. 8:00 2100 m 6/8 6/8 - - -
Do, 19.07. 2:00 - 0/8 0/8 - - -
Ortszeit Bedeckungsgrad in Achtel und Wolkenuntergrenze
Fr, 20.07. 23:30 1(1500m) 7(3300m) 8(3900m)
Fr, 20.07. 23:20 1(1500m) 7(3300m) 8(3900m)
Fr, 20.07. 23:10 5(2400m) 8(3900m) 8(4500m)
Fr, 20.07. 23:00 2(2400m) 7(3900m) 8(5400m)
Fr, 20.07. 22:50 2(2400m) 7(3900m) 8(5400m)
Fr, 20.07. 22:40 5(2400m) 8(5400m) 8(7200m)
Fr, 20.07. 22:30 5(2400m) 8(6600m) 8(7200m)
Fr, 20.07. 22:00 4(6900m) 7(8400m) 8(9000m)
Fr, 20.07. 21:30 8(6900m) 8(8700m) 8(9000m)
Fr, 20.07. 21:00 6(7200m) 8(8100m) 8(7500m)
Fr, 20.07. 20:30 2(3300m) 4(8700m) 8(9000m)
Ortszeit Luftdruck NN (hPa) Tendenz (hPa in 3 Std.)
Fr, 20.07. 20:00 1010 - 0,7
Fr, 20.07. 14:00 1012 - 1,0
Fr, 20.07. 8:00 1014 - 0,4
Fr, 20.07. 2:00 1016 0,0
Do, 19.07. 20:00 1014 - 0,7
Do, 19.07. 14:00 1015 - 0,5
Do, 19.07. 8:00 1017 + 0,5
Do, 19.07. 2:00 1017 + 0,4
Ortszeit Luftdruck NN (hPa) Tendenz (hPa in 3 Std.)
Fr, 20.07. 23:30 1011 + 0,6
Fr, 20.07. 23:20 1011 keine Meldung
Fr, 20.07. 23:10 1011 keine Meldung
Fr, 20.07. 23:00 1011 + 0,4
Fr, 20.07. 22:50 1011 keine Meldung
Fr, 20.07. 22:40 1011 keine Meldung
Fr, 20.07. 22:30 1011 0,0
Fr, 20.07. 22:00 1011 - 0,1
Fr, 20.07. 21:30 1011 + 0,1
Fr, 20.07. 21:00 1011 0,0
Fr, 20.07. 20:30 1010 - 0,3
Ortszeit Schneehöhe (cm)
Fr, 20.07. 20:00 -
Fr, 20.07. 14:00 -
Fr, 20.07. 8:00 -
Fr, 20.07. 2:00 -
Do, 19.07. 20:00 -
Do, 19.07. 14:00 -
Do, 19.07. 8:00 -
Do, 19.07. 2:00 -
Ortszeit Schneehöhe (cm)
Fr, 20.07. 23:30 -
Fr, 20.07. 23:20 -
Fr, 20.07. 23:10 -
Fr, 20.07. 23:00 -
Fr, 20.07. 22:50 -
Fr, 20.07. 22:40 -
Fr, 20.07. 22:30 -
Fr, 20.07. 22:00 -
Fr, 20.07. 21:30 -
Fr, 20.07. 21:00 -
Fr, 20.07. 20:30 -
Link zu dieser Seite / Seite empfehlen

Das Wetter in ...